Regional Weather Roundup
Issued by NWS

Home | Current Version | Previous Version | Text Only | Print | Product List | Glossary On
Versions: 1 2 3 4 5 6 7 8 9 10 11 12 13 14 15 16 17 18 19 20 21 22 23 24 25 26 27 28 29 30 31 32 33 34 35 36 37 38 39 40 41 42 43 44 45 46 47 48 49 50
000
ASUS45 KREV 292110
RWRNV
NEVADA REGIONAL WEATHER ROUNDUP
NATIONAL WEATHER SERVICE RENO NV
200 PM PDT TUE JUL 29 2014

NOTE: "FAIR" INDICATES FEW OR NO CLOUDS BELOW 12,000 FEET WITH NO
SIGNIFICANT WEATHER AND/OR OBSTRUCTIONS TO VISIBILITY.

NVZ001-003-004-292200-
WESTERN NEVADA

CITY           SKY/WX    TMP DP  RH WIND       PRES   REMARKS
RENO           PTSUNNY   91  37  15 N12G18    30.18F
CARSON CITY    FAIR      90  36  14 NW15G23   30.20F
SLIDE MTN        N/A     55  41  58 NW9         N/A
PYRAMID LAKE     N/A     86 N/A N/A NE1         N/A
FALLON         PTSUNNY   94  37  13 N9        30.14F
LOVELOCK       MOSUNNY   90  38  16 E6        30.13F
HAWTHORNE      SUNNY     90  39  17 W10       30.17F
$$

NVZ002-CAZ072-073-292200-
NORTHERN AND CENTRAL SIERRA

CITY           SKY/WX    TMP DP  RH WIND       PRES   REMARKS
S. LAKE TAHOE  MOSUNNY   84  37  18 VRB6      30.33F
TRUCKEE        PTSUNNY   81  37  21 NE10      30.32S
SQUAW VLY 8000 NOT AVBL
BLUE CANYON    PTSUNNY   78  36  21 W8        30.32F
MAMMOTH LAKES  PTSUNNY   77  41  27 N6        30.38F
BRIDGEPORT     CLOUDY    71  47  42 W9        30.35S
$$

NVZ030-031-036-292200-
NORTHERN NEVADA

CITY           SKY/WX    TMP DP  RH WIND       PRES   REMARKS
ELKO           LGT RAIN  75  54  47 N6        30.17F
WINNEMUCCA     MOSUNNY   92  40  16 W9        30.14F
WENDOVER       CLOUDY    79  57  47 SE7       30.17F
$$

NVZ035-037-292200-
CENTRAL NEVADA

CITY           SKY/WX    TMP DP  RH WIND       PRES   REMARKS
ELY            PTSUNNY   75  49  39 VRB3      30.29F
EUREKA           N/A     83  47  28 N12G17    30.26F
$$

NVZ013-014-292200-
SOUTH CENTRAL NEVADA

CITY           SKY/WX    TMP DP  RH WIND       PRES   REMARKS
TONOPAH        PTSUNNY   78  50  37 NW9       30.27F
$$

NVZ017-020-022-292200-
SOUTHERN NEVADA

CITY           SKY/WX    TMP DP  RH WIND       PRES   REMARKS
LAS VEGAS      PTSUNNY   97  53  22 SW13G18   29.95F
N. LAS VEGAS   MOSUNNY   97  54  23 W8        29.98F
NELLIS AFB     MOSUNNY   98  58  26 W8G22     29.96F
HENDERSON      MOSUNNY   97  55  24 S9        30.02F
MERCURY        MOSUNNY   90  52  27 VRB6      30.09F
$$



USA.gov is the U.S. government's official web portal to all federal, state and local government web resources and services.